Flag Weather past 2 weeks in Safed, Israel

Now
55 °F

Light rain. Passing clouds.


Feels Like: 54 °F
Forecast: 45 / 53 °F
Wind: 6 mph from East

Location: Beirut Airport

Current Time: Nov 27, 2014 at 12:56:33 AM

Latest Report: Nov 27, 2014 at 12:00 AM


Visibility: 4 mi

Pressure: 29.98 "Hg

Humidity: 82%

Dew point: 50 °F

Location of SafedLocation

Historic Weather in Safed — Graph

°F

Safed temperature yesterday

Maximum temperature yesterday: 64 °F (at 12:00 AM)
Minimum temperature yesterday: 55 °F (at 9:00 PM)
Average temperature yesterday: 60 °F

Past Weeks' High & Low Weather Summary

 TemperatureHumidityPressure
High77 °F (Nov 12, 12:00 PM)88% (Nov 15, 5:00 PM)30.24 "Hg (Nov 15, 5:00 PM)
Low52 °F (Nov 25, 1:00 AM)38% (Nov 20, 1:00 AM)29.83 "Hg (Nov 26, 3:00 AM)
Average66 °F62%29.99 "Hg
* Reported Nov 11 11:00 PM — Nov 26 11:00 PM, Safed, Weather by CustomWeather, © 2014

Note: Actual official high and low records may vary slightly from our data, if they occured in-between our weather recording intervals... More about our weather records

Advertising

Safed weather history for previous 24 hours

 ConditionsComfort  
Time TempWeatherWind HumidityBarometerVisibility
11:00 PM
Nov 26
55 °FThunderstorms. Passing clouds.8 mph82%29.98 "Hg5 mi
10:00 PM57 °FThunderstorms. Passing clouds.6 mph77%29.95 "Hg5 mi
9:00 PM55 °FRain showers. Passing clouds.8 mph82%29.95 "Hg2 mi
8:00 PM57 °FPassing clouds.7 mph82%29.92 "Hg5 mi
7:00 PM57 °FRain showers. Passing clouds.3 mph82%29.92 "Hg4 mi
6:00 PM57 °FRain showers. Passing clouds.9 mph82%29.92 "Hg4 mi
5:00 PM57 °FRain showers. Passing clouds.14 mph82%29.89 "Hg4 mi
4:00 PM61 °FRain showers. Partly sunny.10 mph68%29.89 "Hg3 mi
3:00 PM61 °FRain showers. Partly sunny.12 mph68%29.86 "Hg3 mi
2:00 PM59 °FRain showers. Partly sunny.10 mph77%29.86 "Hg3 mi
1:00 PM57 °FLots of rain. Partly sunny.18 mph82%29.86 "Hg3 mi
12:00 PM64 °FPartly sunny.20 mph64%29.83 "Hg5 mi
11:00 AM64 °FPartly sunny.24 mph60%29.86 "Hg5 mi
10:00 AM59 °FThunderstorms. Partly sunny.12 mph77%29.86 "Hg4 mi
9:00 AM57 °FLots of rain. Partly sunny.12 mph77%29.86 "Hg2 mi
8:00 AM57 °FRain showers. Partly sunny.12 mph72%29.86 "Hg3 mi
7:00 AM61 °FThunderstorms. Partly sunny.20 mph63%29.83 "Hg5 mi
6:00 AM61 °FThunderstorms. Passing clouds.30 mph72%29.83 "Hg3 mi
5:00 AM57 °FThunderstorms. Passing clouds.16 mph72%29.83 "Hg5 mi
4:00 AM63 °FPassing clouds.22 mph59%29.83 "HgN/A
3:00 AM63 °FRain showers. Passing clouds.24 mph52%29.83 "Hg4 mi
2:00 AM61 °FThunderstorms. Passing clouds.20 mph63%29.86 "Hg4 mi
1:00 AM64 °FPassing clouds.17 mph56%29.86 "HgN/A
12:00 AM64 °FThunderstorms. Passing clouds.23 mph52%29.86 "Hg4 mi
Weather by CustomWeather, © 2014

See weather overviewHow to use our weather pages